Погода в Тумбесе

Перу     3°34′04″S   80°27′10″W
темп.,
°C
ветер,
м/с
пор.,
м/с
влажн.,
%
обл.,
%
осадки,
мм/ч
давл.,
гПа
погр.,
м
25 февраля, чт
чт2501:00+25юз227688 0.0 101181
04:00+24вюв227299 0.0 101097
07:00+24вюв337066 0.0 1010138
10:00+26ссв226317 0.0 1012292
13:00+26сз556927 0.0 1009280
16:00+26зюз667327 0.0 1008430
19:00+25зюз677563 0.0 1009296
22:00+26з3476100 0.0 1012146
26 февраля, пт
пт2601:00+25зюз4479100 0.0 1011172
04:00+25ююв237656 0.0 1009173
07:00+25в337344 0.0 1010152
10:00+26ссв337058 0.0 1011384
13:00+26сз667561 0.0 1009326
16:00+26з55763 0.0 1007406
19:00+25з337428 0.0 1008196
22:00+25з1276100 0.0 1011172
27 февраля, сб
сб2701:00+25зюз237796 0.0 1011198
04:00+25зюз227991 0.0 1009214
07:00+25зюз117892 0.0 1010206
10:00+26ссз227474 0.0 1011324
13:00+26ссз457372 0.0 1008248
16:00+26сз567437 0.0 1006311
19:00+26з348062 0.0 1008309
22:00+25юз2280100 0.1 1010189
28 февраля, вс
вс2801:00+25ююв3381100 0.2 1010198
04:00+24юз1280100 0.2 1009150
07:00+24в1281100 0.4 101088
10:00+25ссв227896 0.0 1011286
13:00+26сз447758 0.0 1008299
16:00+26зсз56762 0.0 1006371
19:00+25зюз338126 0.8 1008324
22:00+25ю2280100 0.8 1010244
1 марта, пн
пн101:00+24юз1181100 1.0 1010139
04:00+24ююв3382100 0.4 1008168
07:00+23всв3390100 2.8 1010134
10:00+24св2283100 0.6 1011170
13:00+25ссв1180100 0.6 1009182
16:00+25сз448095 0.0 1006301
19:00+25зюз348395 0.3 1008282
22:00+25юз3484100 0.9 1011303